Time,TemperatureF,DewpointF,PressureIn,WindDirection,WindDirectionDegrees,WindSpeedMPH,WindSpeedGustMPH,Humidity,HourlyPrecipIn,Conditions,Clouds,dailyrainin,SoftwareType,DateUTC
2013-07-26 00:01:00,84.2,67.3,29.18,South,169,5.4,6.7,57,0.00,,,0.00,LWC V2.10 B1813,2013-07-26 05:01:00,
2013-07-26 00:06:00,84.0,67.6,29.18,ESE,109,3.6,10.1,58,0.00,,,0.00,LWC V2.10 B1813,2013-07-26 05:06:00,
2013-07-26 00:11:00,83.8,68.0,29.18,SSE,154,5.4,6.7,59,0.00,,,0.00,LWC V2.10 B1813,2013-07-26 05:11:00,
2013-07-26 00:16:00,83.7,68.3,29.18,SSE,157,4.0,8.1,60,0.00,,,0.00,LWC V2.10 B1813,2013-07-26 05:16:00,
2013-07-26 00:21:00,83.5,68.6,29.18,ESE,117,8.3,9.6,61,0.00,,,0.00,LWC V2.10 B1813,2013-07-26 05:21:00,
2013-07-26 00:26:00,83.5,69.1,29.18,SSE,167,4.9,8.7,62,0.00,,,0.00,LWC V2.10 B1813,2013-07-26 05:26:00,
2013-07-26 00:31:00,83.3,69.4,29.18,SSE,167,5.4,10.5,63,0.00,,,0.00,LWC V2.10 B1813,2013-07-26 05:31:00,
2013-07-26 00:36:00,83.1,69.2,29.18,SE,135,7.6,7.6,63,0.00,,,0.00,LWC V2.10 B1813,2013-07-26 05:36:00,
2013-07-26 00:41:00,83.1,69.7,29.18,SSW,213,3.1,9.6,64,0.00,,,0.00,LWC V2.10 B1813,2013-07-26 05:41:00,
2013-07-26 00:46:00,82.9,69.5,29.18,South,170,4.9,8.7,64,0.00,,,0.00,LWC V2.10 B1813,2013-07-26 05:46:00,
2013-07-26 00:51:00,82.8,69.8,29.18,SSE,154,5.4,5.8,65,0.00,,,0.00,LWC V2.10 B1813,2013-07-26 05:51:00,
2013-07-26 00:56:00,82.6,69.6,29.18,SSE,156,7.6,8.1,65,0.00,,,0.00,LWC V2.10 B1813,2013-07-26 05:56:00,
2013-07-26 01:01:00,82.4,69.9,29.18,SE,141,4.0,10.1,66,0.00,,,0.00,LWC V2.10 B1813,2013-07-26 06:01:00,
2013-07-26 01:06:00,82.2,69.7,29.18,SSE,164,5.4,8.3,66,0.00,,,0.00,LWC V2.10 B1813,2013-07-26 06:06:00,
2013-07-26 01:11:00,82.2,69.7,29.18,SSE,151,5.4,8.3,66,0.00,,,0.00,LWC V2.10 B1813,2013-07-26 06:11:00,
2013-07-26 01:16:00,82.0,69.5,29.18,South,190,5.8,8.1,66,0.00,,,0.00,LWC V2.10 B1813,2013-07-26 06:16:00,
2013-07-26 01:21:00,81.9,69.4,29.18,South,173,6.3,8.7,66,0.00,,,0.00,LWC V2.10 B1813,2013-07-26 06:21:00,
2013-07-26 01:26:00,81.9,69.8,29.18,SSW,193,5.4,8.7,67,0.00,,,0.00,LWC V2.10 B1813,2013-07-26 06:26:00,
2013-07-26 01:31:00,81.5,69.5,29.18,SSE,168,4.9,12.3,67,0.00,,,0.00,LWC V2.10 B1813,2013-07-26 06:31:00,
2013-07-26 01:36:00,81.5,69.5,29.18,SSE,164,4.0,10.5,67,0.00,,,0.00,LWC V2.10 B1813,2013-07-26 06:36:00,
2013-07-26 01:41:00,81.3,69.7,29.18,SSE,166,5.8,7.6,68,0.00,,,0.00,LWC V2.10 B1813,2013-07-26 06:41:00,
2013-07-26 01:46:00,81.1,69.6,29.18,South,186,6.3,8.3,68,0.00,,,0.00,LWC V2.10 B1813,2013-07-26 06:46:00,
2013-07-26 01:51:00,81.0,69.4,29.18,South,177,9.6,9.6,68,0.00,,,0.00,LWC V2.10 B1813,2013-07-26 06:51:00,
2013-07-26 01:56:00,80.8,69.2,29.18,SSE,151,7.6,7.6,68,0.00,,,0.00,LWC V2.10 B1813,2013-07-26 06:56:00,
2013-07-26 02:02:00,80.6,69.0,29.18,SSW,193,6.7,8.1,68,0.00,,,0.00,LWC V2.10 B1813,2013-07-26 07:02:00,
2013-07-26 02:07:00,80.4,69.3,29.18,SSE,165,8.3,8.3,69,0.00,,,0.00,LWC V2.10 B1813,2013-07-26 07:07:00,
2013-07-26 02:12:00,80.4,69.3,29.18,SSE,166,7.6,10.5,69,0.00,,,0.00,LWC V2.10 B1813,2013-07-26 07:12:00,
2013-07-26 02:17:00,80.2,68.7,29.18,South,173,8.7,9.2,68,0.00,,,0.00,LWC V2.10 B1813,2013-07-26 07:17:00,
2013-07-26 02:22:00,80.2,68.7,29.18,South,183,6.3,6.7,68,0.00,,,0.00,LWC V2.10 B1813,2013-07-26 07:22:00,
2013-07-26 02:27:00,80.1,68.5,29.18,SE,126,8.1,8.7,68,0.00,,,0.00,LWC V2.10 B1813,2013-07-26 07:27:00,
2013-07-26 02:32:00,80.1,68.5,29.18,South,176,7.6,8.3,68,0.00,,,0.00,LWC V2.10 B1813,2013-07-26 07:32:00,
2013-07-26 02:37:00,80.1,68.5,29.18,South,180,3.1,11.0,68,0.00,,,0.00,LWC V2.10 B1813,2013-07-26 07:37:00,
2013-07-26 02:42:00,79.9,68.4,29.18,South,173,12.8,12.8,68,0.00,,,0.00,LWC V2.10 B1813,2013-07-26 07:42:00,
2013-07-26 02:47:00,79.9,68.4,29.18,South,177,5.4,8.3,68,0.00,,,0.00,LWC V2.10 B1813,2013-07-26 07:47:00,
2013-07-26 02:52:00,79.7,68.6,29.18,SSE,159,8.1,10.1,69,0.00,,,0.00,LWC V2.10 B1813,2013-07-26 07:52:00,
2013-07-26 02:57:00,79.5,68.4,29.18,SSW,206,7.2,8.3,69,0.00,,,0.00,LWC V2.10 B1813,2013-07-26 07:57:00,
2013-07-26 03:02:00,79.3,68.7,29.15,SSW,193,8.3,11.9,70,0.00,,,0.00,LWC V2.10 B1813,2013-07-26 08:02:00,
2013-07-26 03:07:00,79.3,68.7,29.15,SSW,198,8.3,11.4,70,0.00,,,0.00,LWC V2.10 B1813,2013-07-26 08:07:00,
2013-07-26 03:12:00,79.2,68.9,29.15,SW,220,13.2,13.2,71,0.00,,,0.00,LWC V2.10 B1813,2013-07-26 08:12:00,
2013-07-26 03:17:00,79.0,68.8,29.15,SW,214,6.3,8.1,71,0.00,,,0.00,LWC V2.10 B1813,2013-07-26 08:17:00,
2013-07-26 03:22:00,78.8,69.0,29.15,South,180,8.1,8.7,72,0.00,,,0.00,LWC V2.10 B1813,2013-07-26 08:22:00,
2013-07-26 03:27:00,78.8,69.4,29.15,South,174,8.7,12.8,73,0.00,,,0.00,LWC V2.10 B1813,2013-07-26 08:27:00,
2013-07-26 03:32:00,78.6,69.2,29.15,SSE,149,7.6,8.7,73,0.00,,,0.00,LWC V2.10 B1813,2013-07-26 08:32:00,
2013-07-26 03:37:00,78.4,69.4,29.15,SSW,198,5.4,6.7,74,0.00,,,0.00,LWC V2.10 B1813,2013-07-26 08:37:00,
2013-07-26 03:42:00,78.4,69.4,29.15,SSW,205,8.3,8.3,74,0.00,,,0.00,LWC V2.10 B1813,2013-07-26 08:42:00,
2013-07-26 03:47:00,78.3,69.3,29.15,SSW,192,5.4,5.8,74,0.00,,,0.00,LWC V2.10 B1813,2013-07-26 08:47:00,
2013-07-26 03:52:00,78.3,69.7,29.15,SSW,198,7.2,8.7,75,0.00,,,0.00,LWC V2.10 B1813,2013-07-26 08:52:00,
2013-07-26 03:57:00,78.1,69.5,29.15,South,185,5.8,8.1,75,0.00,,,0.00,LWC V2.10 B1813,2013-07-26 08:57:00,
2013-07-26 04:02:00,77.9,69.7,29.15,South,182,3.6,8.3,76,0.00,,,0.00,LWC V2.10 B1813,2013-07-26 09:02:00,
2013-07-26 04:07:00,77.9,69.7,29.15,South,191,8.3,10.5,76,0.00,,,0.00,LWC V2.10 B1813,2013-07-26 09:07:00,
2013-07-26 04:12:00,77.9,69.7,29.15,South,176,7.2,8.1,76,0.00,,,0.00,LWC V2.10 B1813,2013-07-26 09:12:00,
2013-07-26 04:17:00,77.7,69.5,29.15,SSW,205,5.8,6.3,76,0.00,,,0.00,LWC V2.10 B1813,2013-07-26 09:17:00,
2013-07-26 04:22:00,77.9,69.7,29.15,South,179,8.3,8.3,76,0.00,,,0.00,LWC V2.10 B1813,2013-07-26 09:22:00,
2013-07-26 04:27:00,77.9,69.7,29.15,SSE,167,5.8,7.6,76,0.00,,,0.00,LWC V2.10 B1813,2013-07-26 09:27:00,
2013-07-26 04:32:00,77.7,69.5,29.18,ESE,107,5.8,5.8,76,0.00,,,0.00,LWC V2.10 B1813,2013-07-26 09:32:00,
2013-07-26 04:37:00,77.7,69.5,29.18,SSW,199,2.7,11.0,76,0.00,,,0.00,LWC V2.10 B1813,2013-07-26 09:37:00,
2013-07-26 04:42:00,77.5,69.4,29.18,SSW,207,4.5,4.9,76,0.00,,,0.00,LWC V2.10 B1813,2013-07-26 09:42:00,
2013-07-26 04:47:00,77.4,69.6,29.18,South,189,3.6,5.4,77,0.00,,,0.00,LWC V2.10 B1813,2013-07-26 09:47:00,
2013-07-26 04:52:00,77.4,69.6,29.18,South,169,5.4,8.1,77,0.00,,,0.00,LWC V2.10 B1813,2013-07-26 09:52:00,
2013-07-26 04:57:00,77.2,69.4,29.18,SSE,166,4.0,6.3,77,0.00,,,0.00,LWC V2.10 B1813,2013-07-26 09:57:00,
2013-07-26 05:02:00,77.2,69.4,29.15,South,179,3.1,4.9,77,0.00,,,0.00,LWC V2.10 B1813,2013-07-26 10:02:00,
2013-07-26 05:07:00,77.0,69.2,29.15,South,172,2.7,5.8,77,0.00,,,0.00,LWC V2.10 B1813,2013-07-26 10:07:00,
2013-07-26 05:12:00,77.0,69.6,29.15,South,176,5.8,5.8,78,0.00,,,0.00,LWC V2.10 B1813,2013-07-26 10:12:00,
2013-07-26 05:17:00,76.8,69.4,29.15,SSW,200,2.7,4.9,78,0.00,,,0.00,LWC V2.10 B1813,2013-07-26 10:17:00,
2013-07-26 05:22:00,76.8,69.4,29.15,South,173,3.6,4.0,78,0.00,,,0.00,LWC V2.10 B1813,2013-07-26 10:22:00,
2013-07-26 05:27:00,76.6,69.2,29.15,South,173,3.1,5.8,78,0.00,,,0.00,LWC V2.10 B1813,2013-07-26 10:27:00,
2013-07-26 05:32:00,76.6,69.2,29.15,SSE,156,5.8,5.8,78,0.00,,,0.00,LWC V2.10 B1813,2013-07-26 10:32:00,
2013-07-26 05:37:00,76.5,69.1,29.15,SSE,168,3.6,4.0,78,0.00,,,0.00,LWC V2.10 B1813,2013-07-26 10:37:00,
2013-07-26 05:42:00,76.5,69.1,29.15,SSE,162,4.9,5.8,78,0.00,,,0.00,LWC V2.10 B1813,2013-07-26 10:42:00,
2013-07-26 05:47:00,76.5,69.1,29.15,South,171,3.1,5.8,78,0.00,,,0.00,LWC V2.10 B1813,2013-07-26 10:47:00,
2013-07-26 05:52:00,76.5,69.1,29.15,South,183,2.2,3.6,78,0.00,,,0.00,LWC V2.10 B1813,2013-07-26 10:52:00,
2013-07-26 05:57:00,76.5,69.1,29.15,SSE,159,2.7,4.0,78,0.00,,,0.00,LWC V2.10 B1813,2013-07-26 10:57:00,
2013-07-26 06:02:00,76.3,68.9,29.18,SSW,208,3.6,5.4,78,0.00,,,0.00,LWC V2.10 B1813,2013-07-26 11:02:00,
2013-07-26 06:07:00,76.1,68.7,29.18,ESE,123,3.6,4.9,78,0.00,,,0.00,LWC V2.10 B1813,2013-07-26 11:07:00,
2013-07-26 06:12:00,76.1,69.1,29.18,South,173,2.7,3.6,79,0.00,,,0.00,LWC V2.10 B1813,2013-07-26 11:12:00,
2013-07-26 06:17:00,76.1,69.1,29.18,ESE,122,0.0,3.1,79,0.00,,,0.00,LWC V2.10 B1813,2013-07-26 11:17:00,
2013-07-26 06:22:00,75.9,68.9,29.18,SSE,163,2.2,5.8,79,0.00,,,0.00,LWC V2.10 B1813,2013-07-26 11:22:00,
2013-07-26 06:27:00,75.7,68.7,29.18,SE,137,2.7,4.0,79,0.00,,,0.00,LWC V2.10 B1813,2013-07-26 11:27:00,
2013-07-26 06:32:00,75.6,68.9,29.18,East,100,5.4,5.4,80,0.00,,,0.00,LWC V2.10 B1813,2013-07-26 11:32:00,
2013-07-26 06:37:00,75.6,68.9,29.18,ESE,122,5.8,7.6,80,0.00,,,0.00,LWC V2.10 B1813,2013-07-26 11:37:00,
2013-07-26 06:41:00,75.6,68.9,29.18,ESE,118,4.0,4.5,80,0.00,,,0.00,LWC V2.10 B1813,2013-07-26 11:41:00,
2013-07-26 06:46:00,75.4,69.1,29.18,SE,139,2.2,6.3,81,0.00,,,0.00,LWC V2.10 B1813,2013-07-26 11:46:00,
2013-07-26 06:51:00,75.4,69.5,29.18,SE,128,4.0,5.4,82,0.00,,,0.00,LWC V2.10 B1813,2013-07-26 11:51:00,
2013-07-26 06:56:00,75.4,69.5,29.18,SSE,152,5.8,5.8,82,0.00,,,0.00,LWC V2.10 B1813,2013-07-26 11:56:00,
2013-07-26 07:01:00,75.6,70.0,29.18,SE,137,5.4,6.7,83,0.00,,,0.00,LWC V2.10 B1813,2013-07-26 12:01:00,
2013-07-26 07:06:00,75.6,70.4,29.18,East,89,3.6,6.3,84,0.00,,,0.00,LWC V2.10 B1813,2013-07-26 12:06:00,
2013-07-26 07:11:00,75.6,70.4,29.18,South,179,3.6,6.3,84,0.00,,,0.00,LWC V2.10 B1813,2013-07-26 12:11:00,
2013-07-26 07:16:00,75.6,70.4,29.18,South,176,3.6,6.3,84,0.00,,,0.00,LWC V2.10 B1813,2013-07-26 12:16:00,
2013-07-26 07:21:00,75.6,70.4,29.18,SSE,151,5.4,6.3,84,0.00,,,0.00,LWC V2.10 B1813,2013-07-26 12:21:00,
2013-07-26 07:26:00,75.6,70.4,29.18,South,184,2.7,3.6,84,0.00,,,0.00,LWC V2.10 B1813,2013-07-26 12:26:00,
2013-07-26 07:31:00,75.4,70.5,29.18,SSW,199,4.0,6.3,85,0.00,,,0.00,LWC V2.10 B1813,2013-07-26 12:31:00,
2013-07-26 07:36:00,75.4,70.5,29.18,SE,128,3.1,6.3,85,0.00,,,0.00,LWC V2.10 B1813,2013-07-26 12:36:00,
2013-07-26 07:41:00,75.4,70.5,29.18,SSE,167,3.1,5.4,85,0.00,,,0.00,LWC V2.10 B1813,2013-07-26 12:41:00,
2013-07-26 07:46:00,75.4,70.5,29.18,SSE,161,4.0,5.8,85,0.00,,,0.00,LWC V2.10 B1813,2013-07-26 12:46:00,
2013-07-26 07:51:00,75.6,71.1,29.18,South,187,3.1,7.6,86,0.00,,,0.00,LWC V2.10 B1813,2013-07-26 12:51:00,
2013-07-26 07:56:00,75.6,71.1,29.18,South,177,5.4,5.8,86,0.00,,,0.00,LWC V2.10 B1813,2013-07-26 12:56:00,
2013-07-26 08:01:00,75.6,71.1,29.18,SSE,158,5.4,5.8,86,0.00,,,0.00,LWC V2.10 B1813,2013-07-26 13:01:00,
2013-07-26 08:06:00,75.7,71.2,29.18,SE,127,2.7,3.6,86,0.00,,,0.00,LWC V2.10 B1813,2013-07-26 13:06:00,
2013-07-26 08:11:00,75.9,71.4,29.18,SSE,155,3.6,4.0,86,0.00,,,0.00,LWC V2.10 B1813,2013-07-26 13:11:00,
2013-07-26 08:17:00,76.1,71.6,29.18,South,173,5.4,5.8,86,0.00,,,0.00,LWC V2.10 B1813,2013-07-26 13:17:00,
2013-07-26 08:22:00,76.1,71.6,29.18,SE,139,3.6,4.9,86,0.00,,,0.00,LWC V2.10 B1813,2013-07-26 13:22:00,
2013-07-26 08:27:00,76.3,71.8,29.18,South,171,2.7,5.8,86,0.00,,,0.00,LWC V2.10 B1813,2013-07-26 13:27:00,
2013-07-26 08:32:00,76.6,72.1,29.18,SSE,160,4.9,6.3,86,0.00,,,0.00,LWC V2.10 B1813,2013-07-26 13:32:00,
2013-07-26 08:37:00,76.8,72.0,29.18,SE,141,4.0,6.3,85,0.00,,,0.00,LWC V2.10 B1813,2013-07-26 13:37:00,
2013-07-26 08:42:00,76.8,72.0,29.18,SSW,210,3.1,5.4,85,0.00,,,0.00,LWC V2.10 B1813,2013-07-26 13:42:00,
2013-07-26 08:47:00,77.0,72.1,29.18,SSE,160,3.6,5.8,85,0.00,,,0.00,LWC V2.10 B1813,2013-07-26 13:47:00,
2013-07-26 08:52:00,77.0,71.8,29.18,South,188,3.1,5.8,84,0.00,,,0.00,LWC V2.10 B1813,2013-07-26 13:52:00,
2013-07-26 08:57:00,77.2,72.0,29.18,SSE,156,0.0,3.6,84,0.00,,,0.00,LWC V2.10 B1813,2013-07-26 13:57:00,
2013-07-26 09:02:00,77.5,72.3,29.18,SSW,196,3.6,6.3,84,0.00,,,0.00,LWC V2.10 B1813,2013-07-26 14:02:00,
2013-07-26 09:07:00,77.7,72.1,29.18,South,191,5.8,8.3,83,0.00,,,0.00,LWC V2.10 B1813,2013-07-26 14:07:00,
2013-07-26 09:12:00,77.7,71.8,29.18,South,190,7.6,10.1,82,0.00,,,0.00,LWC V2.10 B1813,2013-07-26 14:12:00,
2013-07-26 09:17:00,77.9,71.9,29.18,SSE,154,4.0,8.7,82,0.00,,,0.00,LWC V2.10 B1813,2013-07-26 14:17:00,
2013-07-26 09:22:00,78.3,71.9,29.18,SSW,210,3.6,8.1,81,0.00,,,0.00,LWC V2.10 B1813,2013-07-26 14:22:00,
2013-07-26 09:27:00,78.6,71.9,29.18,South,188,2.2,6.3,80,0.00,,,0.00,LWC V2.10 B1813,2013-07-26 14:27:00,
2013-07-26 09:32:00,79.0,71.9,29.18,SSE,149,3.1,5.4,79,0.00,,,0.00,LWC V2.10 B1813,2013-07-26 14:32:00,
2013-07-26 09:37:00,79.2,72.1,29.18,SW,225,3.6,5.4,79,0.00,,,0.00,LWC V2.10 B1813,2013-07-26 14:37:00,
2013-07-26 09:38:00,79.3,72.2,29.18,SW,220,4.0,4.0,79,0.00,,,0.00,LWC V2.10 B1813,2013-07-26 14:38:00,
2013-07-26 09:43:00,79.5,71.7,29.18,South,170,5.4,6.3,77,0.00,,,0.00,LWC V2.10 B1813,2013-07-26 14:43:00,
2013-07-26 09:48:00,79.9,72.0,29.18,South,169,5.4,6.3,77,0.00,,,0.00,LWC V2.10 B1813,2013-07-26 14:48:00,
2013-07-26 09:53:00,80.2,72.0,29.18,SW,217,4.9,6.3,76,0.00,,,0.00,LWC V2.10 B1813,2013-07-26 14:53:00,
2013-07-26 09:59:00,80.6,71.9,29.18,SW,236,4.9,4.9,75,0.00,,,0.00,LWC V2.10 B1813,2013-07-26 14:59:00,
2013-07-26 10:04:00,80.8,71.7,29.18,South,173,4.0,5.4,74,0.00,,,0.00,LWC V2.10 B1813,2013-07-26 15:04:00,
2013-07-26 10:09:00,81.1,71.6,29.18,SW,214,3.6,6.3,73,0.00,,,0.00,LWC V2.10 B1813,2013-07-26 15:09:00,
2013-07-26 10:14:00,81.5,72.0,29.18,SSW,199,4.0,5.4,73,0.00,,,0.00,LWC V2.10 B1813,2013-07-26 15:14:00,
2013-07-26 10:19:00,81.7,70.5,29.18,SSW,204,5.8,8.3,69,0.00,,,0.00,LWC V2.10 B1813,2013-07-26 15:19:00,
2013-07-26 10:24:00,82.2,71.4,29.18,South,182,5.4,6.3,70,0.00,,,0.00,LWC V2.10 B1813,2013-07-26 15:24:00,
2013-07-26 10:29:00,82.9,71.7,29.18,South,187,6.3,9.6,69,0.00,,,0.00,LWC V2.10 B1813,2013-07-26 15:29:00,
2013-07-26 10:34:00,83.1,71.0,29.18,South,185,5.4,8.3,67,0.00,,,0.00,LWC V2.10 B1813,2013-07-26 15:34:00,
2013-07-26 10:39:00,83.1,71.0,29.18,SSW,197,4.0,6.3,67,0.00,,,0.00,LWC V2.10 B1813,2013-07-26 15:39:00,
2013-07-26 10:44:00,83.5,70.9,29.18,SSW,201,4.9,4.9,66,0.00,,,0.00,LWC V2.10 B1813,2013-07-26 15:44:00,
2013-07-26 10:49:00,83.7,71.1,29.18,South,190,4.9,5.8,66,0.00,,,0.00,LWC V2.10 B1813,2013-07-26 15:49:00,
2013-07-26 10:54:00,84.6,71.9,29.18,South,173,3.6,5.8,66,0.00,,,0.00,LWC V2.10 B1813,2013-07-26 15:54:00,
2013-07-26 10:56:00,84.7,71.6,29.18,SSW,204,2.7,4.0,65,0.00,,,0.00,LWC V2.10 B1813,2013-07-26 15:56:00,
2013-07-26 11:01:00,84.4,70.8,29.18,SSE,152,6.3,7.2,64,0.00,,,0.00,LWC V2.10 B1813,2013-07-26 16:01:00,
2013-07-26 11:06:00,84.7,71.2,29.18,SSE,162,6.3,6.3,64,0.00,,,0.00,LWC V2.10 B1813,2013-07-26 16:06:00,
2013-07-26 11:11:00,85.1,71.1,29.18,South,170,4.0,7.6,63,0.00,,,0.00,LWC V2.10 B1813,2013-07-26 16:11:00,
2013-07-26 11:16:00,85.3,70.8,29.18,SSE,168,4.9,8.3,62,0.00,,,0.00,LWC V2.10 B1813,2013-07-26 16:16:00,
2013-07-26 11:21:00,85.6,70.6,29.18,South,189,8.1,8.1,61,0.00,,,0.00,LWC V2.10 B1813,2013-07-26 16:21:00,
2013-07-26 11:26:00,85.5,69.5,29.18,SSE,164,8.1,8.1,59,0.00,,,0.00,LWC V2.10 B1813,2013-07-26 16:26:00,
2013-07-26 11:31:00,86.2,69.6,29.18,South,181,6.3,10.1,58,0.00,,,0.00,LWC V2.10 B1813,2013-07-26 16:31:00,
2013-07-26 11:36:00,85.6,69.1,29.18,SSW,204,5.4,5.4,58,0.00,,,0.00,LWC V2.10 B1813,2013-07-26 16:36:00,
2013-07-26 11:41:00,85.6,69.6,29.18,South,174,4.9,5.4,59,0.00,,,0.00,LWC V2.10 B1813,2013-07-26 16:41:00,
2013-07-26 11:46:00,86.2,70.1,29.18,SW,223,3.6,6.3,59,0.00,,,0.00,LWC V2.10 B1813,2013-07-26 16:46:00,
2013-07-26 11:51:00,86.9,70.8,29.18,South,177,6.3,7.6,59,0.00,,,0.00,LWC V2.10 B1813,2013-07-26 16:51:00,
2013-07-26 11:56:00,87.3,69.1,29.18,SSE,167,3.1,8.7,55,0.00,,,0.00,LWC V2.10 B1813,2013-07-26 16:56:00,
2013-07-26 12:01:00,87.3,68.5,29.18,SE,124,6.3,10.5,54,0.00,,,0.00,LWC V2.10 B1813,2013-07-26 17:01:00,
2013-07-26 12:06:00,87.8,68.5,29.18,SSE,159,7.6,8.7,53,0.00,,,0.00,LWC V2.10 B1813,2013-07-26 17:06:00,
2013-07-26 12:11:00,88.0,68.7,29.18,SSE,165,5.4,8.3,53,0.00,,,0.00,LWC V2.10 B1813,2013-07-26 17:11:00,
2013-07-26 12:16:00,88.7,68.2,29.18,South,191,5.4,6.7,51,0.00,,,0.00,LWC V2.10 B1813,2013-07-26 17:16:00,
2013-07-26 12:22:00,89.1,68.5,29.18,South,182,8.3,11.4,51,0.00,,,0.00,LWC V2.10 B1813,2013-07-26 17:22:00,
2013-07-26 12:27:00,89.2,68.1,29.18,SW,221,6.3,10.5,50,0.00,,,0.00,LWC V2.10 B1813,2013-07-26 17:27:00,
2013-07-26 12:32:00,89.2,68.7,29.18,South,191,7.6,7.6,51,0.00,,,0.00,LWC V2.10 B1813,2013-07-26 17:32:00,
2013-07-26 12:37:00,89.2,67.5,29.18,SE,142,6.3,8.7,49,0.00,,,0.00,LWC V2.10 B1813,2013-07-26 17:37:00,
2013-07-26 12:42:00,89.4,67.7,29.18,South,189,8.3,8.7,49,0.00,,,0.00,LWC V2.10 B1813,2013-07-26 17:42:00,
2013-07-26 12:47:00,90.1,67.8,29.15,SSE,166,10.1,10.1,48,0.00,,,0.00,LWC V2.10 B1813,2013-07-26 17:47:00,
2013-07-26 12:52:00,89.8,66.2,29.15,SSE,161,5.8,11.0,46,0.00,,,0.00,LWC V2.10 B1813,2013-07-26 17:52:00,
2013-07-26 12:57:00,90.3,66.7,29.15,South,183,5.8,8.1,46,0.00,,,0.00,LWC V2.10 B1813,2013-07-26 17:57:00,
2013-07-26 13:02:00,90.9,67.2,29.15,SW,236,11.0,11.0,46,0.00,,,0.00,LWC V2.10 B1813,2013-07-26 18:02:00,
2013-07-26 13:07:00,91.4,68.3,29.15,SW,214,5.4,8.1,47,0.00,,,0.00,LWC V2.10 B1813,2013-07-26 18:07:00,
2013-07-26 13:12:00,90.7,67.0,29.15,South,169,5.4,8.1,46,0.00,,,0.00,LWC V2.10 B1813,2013-07-26 18:12:00,
2013-07-26 13:17:00,91.4,67.7,29.15,South,182,6.3,10.1,46,0.00,,,0.00,LWC V2.10 B1813,2013-07-26 18:17:00,
2013-07-26 13:22:00,91.2,66.9,29.15,SW,222,5.8,10.5,45,0.00,,,0.00,LWC V2.10 B1813,2013-07-26 18:22:00,
2013-07-26 13:27:00,92.3,67.8,29.15,South,182,3.6,8.1,45,0.00,,,0.00,LWC V2.10 B1813,2013-07-26 18:27:00,
2013-07-26 13:32:00,93.0,67.8,29.15,SE,140,3.6,5.8,44,0.00,,,0.00,LWC V2.10 B1813,2013-07-26 18:32:00,
2013-07-26 13:37:00,92.3,66.5,29.15,South,177,8.1,10.1,43,0.00,,,0.00,LWC V2.10 B1813,2013-07-26 18:37:00,
2013-07-26 13:42:00,92.1,65.7,29.15,South,190,8.1,11.0,42,0.00,,,0.00,LWC V2.10 B1813,2013-07-26 18:42:00,
2013-07-26 13:47:00,92.8,67.0,29.15,SSW,206,8.3,8.3,43,0.00,,,0.00,LWC V2.10 B1813,2013-07-26 18:47:00,
2013-07-26 13:52:00,92.7,66.2,29.15,SSW,206,7.6,12.3,42,0.00,,,0.00,LWC V2.10 B1813,2013-07-26 18:52:00,
2013-07-26 13:57:00,93.2,67.3,29.15,ESE,118,5.4,6.3,43,0.00,,,0.00,LWC V2.10 B1813,2013-07-26 18:57:00,
2013-07-26 14:02:00,93.7,66.4,29.12,South,186,5.4,10.1,41,0.00,,,0.00,LWC V2.10 B1813,2013-07-26 19:02:00,
2013-07-26 14:07:00,93.7,65.7,29.12,South,179,4.9,8.3,40,0.00,,,0.00,LWC V2.10 B1813,2013-07-26 19:07:00,
2013-07-26 14:12:00,93.9,65.9,29.12,South,189,5.4,9.2,40,0.00,,,0.00,LWC V2.10 B1813,2013-07-26 19:12:00,
2013-07-26 14:17:00,93.9,65.9,29.12,South,184,6.3,8.3,40,0.00,,,0.00,LWC V2.10 B1813,2013-07-26 19:17:00,
2013-07-26 14:22:00,94.6,66.5,29.12,South,182,8.3,11.4,40,0.00,,,0.00,LWC V2.10 B1813,2013-07-26 19:22:00,
2013-07-26 14:27:00,93.9,65.9,29.12,South,186,7.2,8.1,40,0.00,,,0.00,LWC V2.10 B1813,2013-07-26 19:27:00,
2013-07-26 14:32:00,94.8,66.7,29.12,SSE,166,6.7,8.7,40,0.00,,,0.00,LWC V2.10 B1813,2013-07-26 19:32:00,
2013-07-26 14:37:00,95.0,66.8,29.12,South,175,6.3,6.7,40,0.00,,,0.00,LWC V2.10 B1813,2013-07-26 19:37:00,
2013-07-26 14:42:00,94.5,65.6,29.12,SSW,196,5.4,5.8,39,0.00,,,0.00,LWC V2.10 B1813,2013-07-26 19:42:00,
2013-07-26 14:47:00,95.0,66.1,29.12,South,180,8.7,8.7,39,0.00,,,0.00,LWC V2.10 B1813,2013-07-26 19:47:00,
2013-07-26 14:52:00,95.2,66.3,29.12,East,79,5.4,9.6,39,0.00,,,0.00,LWC V2.10 B1813,2013-07-26 19:52:00,
2013-07-26 14:57:00,95.2,65.5,29.12,South,185,5.8,9.6,38,0.00,,,0.00,LWC V2.10 B1813,2013-07-26 19:57:00,
2013-07-26 15:02:00,95.2,65.5,29.12,South,170,7.6,9.2,38,0.00,,,0.00,LWC V2.10 B1813,2013-07-26 20:02:00,
2013-07-26 15:07:00,95.5,65.8,29.12,SSE,147,5.4,8.7,38,0.00,,,0.00,LWC V2.10 B1813,2013-07-26 20:07:00,
2013-07-26 15:12:00,95.5,65.8,29.12,South,179,2.7,7.6,38,0.00,,,0.00,LWC V2.10 B1813,2013-07-26 20:12:00,
2013-07-26 15:17:00,96.1,66.3,29.12,South,173,5.4,8.7,38,0.00,,,0.00,LWC V2.10 B1813,2013-07-26 20:17:00,
2013-07-26 15:22:00,96.3,66.5,29.12,SE,144,3.6,6.3,38,0.00,,,0.00,LWC V2.10 B1813,2013-07-26 20:22:00,
2013-07-26 15:27:00,96.3,65.7,29.12,South,181,5.4,6.3,37,0.00,,,0.00,LWC V2.10 B1813,2013-07-26 20:27:00,
2013-07-26 15:32:00,96.4,66.6,29.09,SSW,199,5.4,8.1,38,0.00,,,0.00,LWC V2.10 B1813,2013-07-26 20:32:00,
2013-07-26 15:37:00,96.8,65.4,29.09,South,178,6.3,10.1,36,0.00,,,0.00,LWC V2.10 B1813,2013-07-26 20:37:00,
2013-07-26 15:42:00,96.6,66.0,29.09,South,172,4.5,7.6,37,0.00,,,0.00,LWC V2.10 B1813,2013-07-26 20:42:00,
2013-07-26 15:47:00,96.4,65.9,29.09,SSW,206,5.8,8.1,37,0.00,,,0.00,LWC V2.10 B1813,2013-07-26 20:47:00,
2013-07-26 15:52:00,96.6,66.0,29.09,South,174,6.3,6.3,37,0.00,,,0.00,LWC V2.10 B1813,2013-07-26 20:52:00,
2013-07-26 15:57:00,96.8,66.2,29.09,ESE,122,5.4,6.3,37,0.00,,,0.00,LWC V2.10 B1813,2013-07-26 20:57:00,
2013-07-26 16:02:00,97.2,65.7,29.09,South,191,5.8,8.3,36,0.00,,,0.00,LWC V2.10 B1813,2013-07-26 21:02:00,
2013-07-26 16:07:00,96.6,65.2,29.09,SSW,206,4.5,8.3,36,0.00,,,0.00,LWC V2.10 B1813,2013-07-26 21:07:00,
2013-07-26 16:12:00,97.0,65.5,29.09,South,190,6.3,8.3,36,0.00,,,0.00,LWC V2.10 B1813,2013-07-26 21:12:00,
2013-07-26 16:17:00,96.6,65.2,29.09,SSW,195,3.6,8.1,36,0.00,,,0.00,LWC V2.10 B1813,2013-07-26 21:17:00,
2013-07-26 16:22:00,97.2,64.9,29.09,SSW,211,6.7,8.1,35,0.00,,,0.00,LWC V2.10 B1813,2013-07-26 21:22:00,
2013-07-26 16:27:00,97.3,65.0,29.09,SW,217,5.4,6.3,35,0.00,,,0.00,LWC V2.10 B1813,2013-07-26 21:27:00,
2013-07-26 16:32:00,97.5,66.0,29.09,SE,127,8.1,8.1,36,0.00,,,0.00,LWC V2.10 B1813,2013-07-26 21:32:00,
2013-07-26 16:37:00,97.0,65.5,29.09,South,176,5.4,8.3,36,0.00,,,0.00,LWC V2.10 B1813,2013-07-26 21:37:00,
2013-07-26 16:42:00,97.0,65.5,29.09,East,86,7.6,8.1,36,0.00,,,0.00,LWC V2.10 B1813,2013-07-26 21:42:00,
2013-07-26 16:47:00,96.4,65.1,29.09,ESE,104,3.1,10.1,36,0.00,,,0.00,LWC V2.10 B1813,2013-07-26 21:47:00,
2013-07-26 16:52:00,96.8,65.4,29.09,SSE,168,10.1,10.1,36,0.00,,,0.00,LWC V2.10 B1813,2013-07-26 21:52:00,
2013-07-26 16:57:00,96.8,65.4,29.09,SE,139,3.1,8.3,36,0.00,,,0.00,LWC V2.10 B1813,2013-07-26 21:57:00,
2013-07-26 17:02:00,96.6,65.2,29.06,ESE,113,8.1,8.7,36,0.00,,,0.00,LWC V2.10 B1813,2013-07-26 22:02:00,
2013-07-26 17:07:00,96.4,64.3,29.06,SSE,167,8.7,8.7,35,0.00,,,0.00,LWC V2.10 B1813,2013-07-26 22:07:00,
2013-07-26 17:12:00,96.6,64.4,29.06,SSW,202,5.4,7.6,35,0.00,,,0.00,LWC V2.10 B1813,2013-07-26 22:12:00,
2013-07-26 17:17:00,96.1,63.9,29.06,SW,222,5.8,10.5,35,0.00,,,0.00,LWC V2.10 B1813,2013-07-26 22:17:00,
2013-07-26 17:22:00,96.3,64.1,29.06,SSE,153,5.8,5.8,35,0.00,,,0.00,LWC V2.10 B1813,2013-07-26 22:22:00,
2013-07-26 17:27:00,96.3,64.1,29.06,SE,141,5.8,6.3,35,0.00,,,0.00,LWC V2.10 B1813,2013-07-26 22:27:00,
2013-07-26 17:32:00,96.1,63.1,29.06,South,170,11.0,11.0,34,0.00,,,0.00,LWC V2.10 B1813,2013-07-26 22:32:00,
2013-07-26 17:37:00,95.9,63.0,29.06,South,178,6.3,11.0,34,0.00,,,0.00,LWC V2.10 B1813,2013-07-26 22:37:00,
2013-07-26 17:42:00,96.1,63.9,29.06,SE,136,4.0,9.6,35,0.00,,,0.00,LWC V2.10 B1813,2013-07-26 22:42:00,
2013-07-26 17:47:00,95.9,63.0,29.06,SSE,154,6.3,7.6,34,0.00,,,0.00,LWC V2.10 B1813,2013-07-26 22:47:00,
2013-07-26 17:52:00,95.7,63.6,29.06,ESE,119,5.4,7.6,35,0.00,,,0.00,LWC V2.10 B1813,2013-07-26 22:52:00,
2013-07-26 17:57:00,95.7,63.6,29.06,South,173,5.8,5.8,35,0.00,,,0.00,LWC V2.10 B1813,2013-07-26 22:57:00,
2013-07-26 18:02:00,96.1,63.9,29.06,SE,130,10.5,11.0,35,0.00,,,0.00,LWC V2.10 B1813,2013-07-26 23:02:00,
2013-07-26 18:07:00,95.9,63.0,29.06,SSE,166,8.3,10.1,34,0.00,,,0.00,LWC V2.10 B1813,2013-07-26 23:07:00,
2013-07-26 18:12:00,95.7,62.8,29.06,South,169,10.5,10.5,34,0.00,,,0.00,LWC V2.10 B1813,2013-07-26 23:12:00,
2013-07-26 18:17:00,95.5,62.6,29.06,SSW,203,8.1,10.1,34,0.00,,,0.00,LWC V2.10 B1813,2013-07-26 23:17:00,
2013-07-26 18:22:00,95.9,63.0,29.03,ESE,111,8.7,10.1,34,0.00,,,0.00,LWC V2.10 B1813,2013-07-26 23:22:00,
2013-07-26 18:27:00,95.7,62.8,29.03,SE,145,4.9,10.1,34,0.00,,,0.00,LWC V2.10 B1813,2013-07-26 23:27:00,
2013-07-26 18:32:00,95.5,62.6,29.03,SE,127,5.8,8.3,34,0.00,,,0.00,LWC V2.10 B1813,2013-07-26 23:32:00,
2013-07-26 18:37:00,95.4,62.5,29.03,ESE,117,9.6,9.6,34,0.00,,,0.00,LWC V2.10 B1813,2013-07-26 23:37:00,
2013-07-26 18:42:00,95.4,62.5,29.03,South,179,5.8,8.1,34,0.00,,,0.00,LWC V2.10 B1813,2013-07-26 23:42:00,
2013-07-26 18:47:00,95.0,63.0,29.03,SSE,147,5.4,8.1,35,0.00,,,0.00,LWC V2.10 B1813,2013-07-26 23:47:00,
2013-07-26 18:52:00,94.8,62.8,29.03,SSE,155,4.0,7.6,35,0.00,,,0.00,LWC V2.10 B1813,2013-07-26 23:52:00,
2013-07-26 18:57:00,94.8,62.8,29.03,South,188,5.4,6.7,35,0.00,,,0.00,LWC V2.10 B1813,2013-07-26 23:57:00,
2013-07-26 19:02:00,94.6,62.7,29.03,SW,226,2.7,7.6,35,0.00,,,0.00,LWC V2.10 B1813,2013-07-27 00:02:00,
2013-07-26 19:07:00,94.6,63.5,29.03,South,175,6.7,6.7,36,0.00,,,0.00,LWC V2.10 B1813,2013-07-27 00:07:00,
2013-07-26 19:12:00,94.5,63.3,29.03,SSW,206,6.3,6.3,36,0.00,,,0.00,LWC V2.10 B1813,2013-07-27 00:12:00,
2013-07-26 19:17:00,94.3,63.2,29.03,SSE,150,8.7,8.7,36,0.00,,,0.00,LWC V2.10 B1813,2013-07-27 00:17:00,
2013-07-26 19:22:00,94.1,63.0,29.03,SSE,147,4.0,8.7,36,0.00,,,0.00,LWC V2.10 B1813,2013-07-27 00:22:00,
2013-07-26 19:27:00,93.9,63.6,29.03,SE,126,2.7,6.3,37,0.00,,,0.00,LWC V2.10 B1813,2013-07-27 00:27:00,
2013-07-26 19:32:00,93.7,63.5,29.03,SSE,149,7.6,7.6,37,0.00,,,0.00,LWC V2.10 B1813,2013-07-27 00:32:00,
2013-07-26 19:37:00,93.6,63.3,29.03,SSE,164,7.6,7.6,37,0.00,,,0.00,LWC V2.10 B1813,2013-07-27 00:37:00,
2013-07-26 19:42:00,93.2,63.0,29.03,SSE,151,8.3,8.3,37,0.00,,,0.00,LWC V2.10 B1813,2013-07-27 00:42:00,
2013-07-26 19:47:00,92.8,63.4,29.03,SSE,151,3.1,6.3,38,0.00,,,0.00,LWC V2.10 B1813,2013-07-27 00:47:00,
2013-07-26 19:52:00,92.7,63.3,29.03,SE,138,4.9,8.1,38,0.00,,,0.00,LWC V2.10 B1813,2013-07-27 00:52:00,
2013-07-26 19:57:00,92.3,63.0,29.03,SSE,166,2.7,5.4,38,0.00,,,0.00,LWC V2.10 B1813,2013-07-27 00:57:00,
2013-07-26 20:02:00,91.9,62.7,29.03,SSE,166,5.4,5.4,38,0.00,,,0.00,LWC V2.10 B1813,2013-07-27 01:02:00,
2013-07-26 20:07:00,91.8,63.2,29.03,SSE,163,3.6,5.8,39,0.00,,,0.00,LWC V2.10 B1813,2013-07-27 01:07:00,
2013-07-26 20:12:00,91.6,63.1,29.03,SSE,164,4.0,8.1,39,0.00,,,0.00,LWC V2.10 B1813,2013-07-27 01:12:00,
2013-07-26 20:17:00,91.2,63.5,29.03,SE,134,5.4,6.3,40,0.00,,,0.00,LWC V2.10 B1813,2013-07-27 01:17:00,
2013-07-26 20:22:00,91.0,63.3,29.03,SSE,147,5.4,6.3,40,0.00,,,0.00,LWC V2.10 B1813,2013-07-27 01:22:00,
2013-07-26 20:27:00,90.9,63.2,29.03,SSE,166,3.6,5.4,40,0.00,,,0.00,LWC V2.10 B1813,2013-07-27 01:27:00,
2013-07-26 20:32:00,90.5,62.8,29.03,SSE,151,3.1,5.8,40,0.00,,,0.00,LWC V2.10 B1813,2013-07-27 01:32:00,
2013-07-26 20:37:00,90.3,63.4,29.03,SE,143,4.0,4.9,41,0.00,,,0.00,LWC V2.10 B1813,2013-07-27 01:37:00,
2013-07-26 20:42:00,90.1,63.2,29.03,SE,143,3.1,3.6,41,0.00,,,0.00,LWC V2.10 B1813,2013-07-27 01:42:00,
2013-07-26 20:47:00,90.0,63.1,29.03,East,91,3.6,6.3,41,0.00,,,0.00,LWC V2.10 B1813,2013-07-27 01:47:00,
2013-07-26 20:52:00,89.8,63.6,29.03,South,189,3.1,5.4,42,0.00,,,0.00,LWC V2.10 B1813,2013-07-27 01:52:00,
2013-07-26 20:57:00,89.6,63.4,29.03,SE,146,4.0,5.4,42,0.00,,,0.00,LWC V2.10 B1813,2013-07-27 01:57:00,
2013-07-26 21:02:00,89.8,63.6,29.06,SE,141,4.0,4.0,42,0.00,,,0.00,LWC V2.10 B1813,2013-07-27 02:02:00,
2013-07-26 21:07:00,89.6,63.4,29.06,SE,124,4.0,4.0,42,0.00,,,0.00,LWC V2.10 B1813,2013-07-27 02:07:00,
2013-07-26 21:12:00,89.6,64.1,29.06,ESE,104,4.0,4.0,43,0.00,,,0.00,LWC V2.10 B1813,2013-07-27 02:12:00,
2013-07-26 21:17:00,89.4,64.6,29.03,SSE,149,6.3,7.6,44,0.00,,,0.00,LWC V2.10 B1813,2013-07-27 02:17:00,
2013-07-26 21:22:00,89.4,64.6,29.03,SSE,153,3.6,6.3,44,0.00,,,0.00,LWC V2.10 B1813,2013-07-27 02:22:00,
2013-07-26 21:27:00,89.2,64.4,29.03,SE,136,3.6,6.7,44,0.00,,,0.00,LWC V2.10 B1813,2013-07-27 02:27:00,
2013-07-26 21:32:00,89.2,65.1,29.06,SE,131,3.6,3.6,45,0.00,,,0.00,LWC V2.10 B1813,2013-07-27 02:32:00,
2013-07-26 21:37:00,89.2,65.1,29.06,SSE,158,0.0,3.6,45,0.00,,,0.00,LWC V2.10 B1813,2013-07-27 02:37:00,
2013-07-26 21:42:00,89.2,65.1,29.06,South,172,4.0,5.8,45,0.00,,,0.00,LWC V2.10 B1813,2013-07-27 02:42:00,
2013-07-26 21:47:00,89.2,65.1,29.03,SE,138,6.3,8.1,45,0.00,,,0.00,LWC V2.10 B1813,2013-07-27 02:47:00,
2013-07-26 21:52:00,89.1,64.9,29.03,SSE,152,7.2,7.6,45,0.00,,,0.00,LWC V2.10 B1813,2013-07-27 02:52:00,
2013-07-26 21:57:00,89.1,65.5,29.03,SSE,165,6.3,6.3,46,0.00,,,0.00,LWC V2.10 B1813,2013-07-27 02:57:00,
2013-07-26 22:02:00,88.9,65.4,29.06,SSE,162,4.0,6.3,46,0.00,,,0.00,LWC V2.10 B1813,2013-07-27 03:02:00,
2013-07-26 22:07:00,88.9,65.4,29.06,SSE,154,4.0,6.3,46,0.00,,,0.00,LWC V2.10 B1813,2013-07-27 03:07:00,
2013-07-26 22:12:00,88.7,65.2,29.06,SE,127,5.4,8.1,46,0.00,,,0.00,LWC V2.10 B1813,2013-07-27 03:12:00,
2013-07-26 22:17:00,88.7,65.8,29.06,South,183,4.0,8.3,47,0.00,,,0.00,LWC V2.10 B1813,2013-07-27 03:17:00,
2013-07-26 22:22:00,88.5,66.3,29.06,SSE,165,6.3,11.0,48,0.00,,,0.00,LWC V2.10 B1813,2013-07-27 03:22:00,
2013-07-26 22:27:00,88.3,67.9,29.06,SSE,162,5.8,12.3,51,0.00,,,0.00,LWC V2.10 B1813,2013-07-27 03:27:00,
2013-07-26 22:32:00,88.2,68.8,29.06,South,184,7.2,11.4,53,0.00,,,0.00,LWC V2.10 B1813,2013-07-27 03:32:00,
2013-07-26 22:37:00,88.0,70.8,29.06,SSE,149,11.0,11.0,57,0.00,,,0.00,LWC V2.10 B1813,2013-07-27 03:37:00,
2013-07-26 22:42:00,87.8,72.1,29.06,South,180,6.3,13.2,60,0.00,,,0.00,LWC V2.10 B1813,2013-07-27 03:42:00,
2013-07-26 22:47:00,87.4,72.8,29.06,SSE,154,14.5,14.5,62,0.00,,,0.00,LWC V2.10 B1813,2013-07-27 03:47:00,
2013-07-26 22:52:00,87.3,73.6,29.06,South,171,5.4,11.0,64,0.00,,,0.00,LWC V2.10 B1813,2013-07-27 03:52:00,
2013-07-26 22:57:00,87.1,73.9,29.06,SSE,156,7.6,10.5,65,0.00,,,0.00,LWC V2.10 B1813,2013-07-27 03:57:00,
2013-07-26 23:01:00,86.9,72.8,29.06,West,265,8.1,8.1,63,0.00,,,0.00,LWC V2.10 B1813,2013-07-27 04:01:00,
2013-07-26 23:06:00,86.9,72.8,29.09,NNE,14,3.6,7.6,63,0.00,,,0.00,LWC V2.10 B1813,2013-07-27 04:06:00,
2013-07-26 23:11:00,86.4,71.3,29.09,North,11,8.7,15.0,61,0.00,,,0.00,LWC V2.10 B1813,2013-07-27 04:11:00,
2013-07-26 23:16:00,80.6,69.9,29.09,NE,50,2.2,6.3,70,1.61,,,0.08,LWC V2.10 B1813,2013-07-27 04:16:00,
2013-07-26 23:21:00,79.0,70.4,29.12,NNW,331,2.7,10.5,75,1.61,,,0.08,LWC V2.10 B1813,2013-07-27 04:21:00,
2013-07-26 23:26:00,78.1,70.6,29.12,ESE,120,2.2,2.7,78,1.61,,,0.08,LWC V2.10 B1813,2013-07-27 04:26:00,
2013-07-26 23:31:00,77.9,71.2,29.12,NE,35,3.1,3.6,80,1.61,,,0.08,LWC V2.10 B1813,2013-07-27 04:31:00,
2013-07-26 23:36:00,77.7,71.8,29.12,ESE,104,3.1,3.1,82,1.61,,,0.08,LWC V2.10 B1813,2013-07-27 04:36:00,
2013-07-26 23:41:00,77.4,71.8,29.12,East,82,4.0,5.8,83,1.61,,,0.08,LWC V2.10 B1813,2013-07-27 04:41:00,
2013-07-26 23:46:00,77.0,71.8,29.12,NE,44,2.7,3.6,84,1.61,,,0.08,LWC V2.10 B1813,2013-07-27 04:46:00,
2013-07-26 23:51:00,76.8,72.0,29.12,ENE,58,5.4,5.4,85,1.61,,,0.08,LWC V2.10 B1813,2013-07-27 04:51:00,
2013-07-26 23:56:00,76.6,72.1,29.12,ENE,72,0.0,3.1,86,1.61,,,0.08,LWC V2.10 B1813,2013-07-27 04:56:00,